Location: Briis
(48.6240°N, 2.1211°E)
Time: 00:47:05
(UTC+00:00)

Cosmos 1437 Rocket - Pass Details

Date: 25 September 2020
Orbit: 506 x 562 km, 81.2° (Epoch: 23 October)

Event Time Altitude Azimuth Distance (km) Brightness Sun altitude
Rises 04:46:38 0° 202° (SSW) 2,609 6.0 -10.1°
Reaches altitude 10° 04:48:46 10° 208° (SSW) 1,734 5.0 -9.7°
Maximum altitude 04:52:29 52° 285° (WNW) 655 2.9 -9.1°
Drops below altitude 10° 04:56:18 10° 3° (N) 1,776 5.6 -8.5°
Sets 04:58:32 0° 8° (N) 2,681 6.5 -8.1°
